Regional Weather Roundup
Issued by NWS Cleveland, OH

Home | Current Version | Previous Version | Graphics & Text | Print | Product List | Glossary On
Versions: 1 2 3 4 5 6 7 8 9 10 11 12 13 14 15 16 17 18 19 20 21 22 23 24 25 26 27 28 29 30 31 32 33 34 35 36 37 38 39 40 41 42 43 44 45 46 47 48 49 50
000
ASUS41 KCLE 220510
RWRCLE
OHIO REGIONAL WEATHER ROUNDUP
NATIONAL WEATHER SERVICE WILMINGTON, OH
100 AM EDT FRI SEP 22 2017

NOTE: "FAIR" INDICATES FEW OR NO CLOUDS BELOW 12,000 FEET WITH NO
SIGNIFICANT WEATHER AND/OR OBSTRUCTIONS TO VISIBILITY.

OHZ001>008-015>018-024>027-034-035-043-044-220600-
   NORTHWEST OHIO

CITY           SKY/WX    TMP DP  RH WIND       PRES   REMARKS
DEFIANCE       FAIR      73  69  87 CALM      30.07F
FINDLAY        FAIR      74  67  78 CALM      30.07S
TOLEDO EXPRESS FAIR      73  71  93 CALM      30.08S
TOLEDO EXEC    FAIR      72  69  90 E3        30.09S
LIMA           FAIR      70  67  90 CALM      30.09R
$$

OHZ009>014-019>023-028>033-038-089-220600-
   NORTHEAST OHIO

CITY           SKY/WX    TMP DP  RH WIND       PRES   REMARKS
CLE-HOPKINS    FAIR      70  63  78 CALM      30.11S
CLE-LAKEFRONT  FAIR      72  61  68 SE6       30.08S
CUY CO. ARPT   NOT AVBL
LORAIN-ELYRIA  MOCLDY    65  59  81 CALM      30.10S
ASHTABULA      FAIR      62  60  93 CALM      30.12S
AKRON-CANTON   FAIR      71  62  73 E7        30.11S
WOOSTER        FAIR      62  61  96 NE3       30.11F
MANSFIELD      FAIR      72  64  76 SE5       30.12S
YOUNGSTOWN     FAIR      63  62  97 E6        30.11F
$$

OHZ042-051>053-060>062-070>072-077>081-220600-
  SOUTHWEST OHIO

CITY           SKY/WX    TMP DP  RH WIND       PRES   REMARKS
CINC-COVINGTON FAIR      76  70  82 SE3       30.08S
CINC-LUNKEN    FAIR      70  70 100 CALM      30.08S FOG
HAMILTON       FAIR      71  70  96 CALM      30.08S FOG
DAYTON         FAIR      72  66  81 SE6       30.10S
WRIGHT-PAT AFB FAIR      72  70  93 CALM      30.09S
DAYTON GENERAL MOCLDY    76  66  71 SE5       30.09R
WILMINGTON     FAIR      68  66  93 CALM      30.10S
$$

OHZ036-037-039>041-045>050-054>059-063>069-073>076-082>088-220600-
  CENTRAL AND SOUTHEAST OHIO

CITY           SKY/WX    TMP DP  RH WIND       PRES   REMARKS
COLUMBUS       FAIR      73  67  81 E3        30.09S
OSU AIRPORT    FAIR      73  68  84 CALM      30.09F
BOLTON FIELD   FAIR      66  65  97 CALM      30.10S
RICKENBACK AFB FAIR      69  67  92 CALM      30.08F
NEWARK         FAIR      67  65  93 CALM      30.09F FOG
MARION         FAIR      72  65  78 SE3       30.10S
LANCASTER      FAIR      64  64 100 CALM      30.10S
ZANESVILLE     FAIR      67  65  93 CALM      30.10S FOG
NEW PHILLY     FAIR      65  64  97 CALM      30.11S FOG
$$




USA.gov is the U.S. government's official web portal to all federal, state and local government web resources and services.